Flag for Germany Weather past 2 weeks in Oer-Erkenschwick, North Rhine-Westphalia, Germany

Now
34 °F

Partly sunny.


Feels Like: 26 °F
Forecast: 32 / 38 °F
Wind: 10 mph from Southwest

Location: Dortmund / Wickede

Current Time: Feb 1, 2015 at 12:44:00 PM

Latest Report: Feb 1, 2015 at 12:20 PM


Visibility: 4 mi

Pressure: 29.21 "Hg

Humidity: 87%

Dew point: 30 °F

Location of Oer-ErkenschwickLocation

Historic Weather in Oer-Erkenschwick — Graph

°F

Oer-Erkenschwick temperature yesterday

Maximum temperature yesterday: 37 °F (at 1:20 PM)
Minimum temperature yesterday: 30 °F (at 6:50 PM)
Average temperature yesterday: 34 °F

Past Weeks' High & Low Weather Summary

 TemperatureHumidityPressure
High43 °F (Jan 28, 1:50 PM)93% (Jan 19, 8:50 AM)30.39 "Hg (Jan 19, 8:50 AM)
Low27 °F (Jan 21, 8:20 AM)60% (Jan 21, 12:20 PM)28.71 "Hg (Jan 30, 5:20 AM)
Average34 °F83%29.78 "Hg
* Reported Jan 17 11:20 AM — Feb 1 11:20 AM, Oer-Erkenschwick, Weather by CustomWeather, © 2014

Note: Actual official high and low records may vary slightly from our data, if they occured in-between our weather recording intervals... More about our weather records

Advertising

Oer-Erkenschwick weather history for previous 24 hours

 ConditionsComfort  
Time TempWeatherWind HumidityBarometerVisibility
11:20 AM
Feb 1
34 °FPartly sunny.9 mph87%29.21 "Hg6 mi
10:50 AM34 °FPartly sunny.8 mph87%29.18 "Hg6 mi
10:20 AM34 °FPartly sunny.9 mph81%29.18 "Hg6 mi
9:50 AM34 °FPartly sunny.7 mph81%29.18 "HgN/A
9:20 AM34 °FPartly sunny.9 mph81%29.18 "Hg6 mi
8:50 AM32 °FScattered clouds.9 mph87%29.18 "Hg6 mi
8:20 AM32 °FPartly sunny.9 mph87%29.15 "Hg6 mi
7:50 AM32 °FPassing clouds.9 mph87%29.15 "HgN/A
7:20 AM32 °FPassing clouds.8 mph87%29.15 "HgN/A
6:50 AM32 °FPassing clouds.8 mph87%29.15 "HgN/A
6:20 AM32 °FPassing clouds.5 mph87%29.15 "HgN/A
5:50 AM34 °FPassing clouds.8 mph87%29.12 "HgN/A
5:20 AM32 °FPassing clouds.7 mph87%29.12 "HgN/A
10:50 PM
Jan 31
30 °FClear.9 mph86%29.09 "Hg10 mi
10:20 PM32 °FClear.9 mph87%29.09 "Hg10 mi
9:50 PM32 °FClear.7 mph87%29.09 "Hg10 mi
9:20 PM32 °FClear.8 mph80%29.09 "Hg10 mi
8:50 PM32 °FClear.9 mph87%29.09 "Hg10 mi
8:20 PM32 °FClear.10 mph87%29.09 "Hg10 mi
7:50 PM32 °FPassing clouds.8 mph87%29.06 "HgN/A
7:20 PM30 °FClear.10 mph86%29.06 "Hg10 mi
6:50 PM30 °FClear.8 mph86%29.06 "Hg10 mi
6:20 PM32 °FClear.8 mph87%29.03 "Hg10 mi
5:50 PM34 °FClear.9 mph81%29.03 "Hg10 mi
5:20 PM34 °FClear.8 mph81%29.03 "Hg10 mi
4:50 PM36 °FScattered clouds.7 mph75%29.00 "HgN/A
4:20 PM37 °FScattered showers. Scattered clouds.7 mph70%29.00 "HgN/A
3:50 PM37 °FScattered clouds.9 mph75%29.00 "HgN/A
3:20 PM37 °FScattered clouds.12 mph75%29.00 "HgN/A
2:50 PM37 °FPartly sunny.9 mph81%29.00 "HgN/A
2:20 PM36 °FPartly sunny.9 mph81%29.00 "HgN/A
1:50 PM37 °FPartly sunny.9 mph81%29.00 "HgN/A
1:20 PM37 °FBroken clouds.10 mph75%28.97 "HgN/A
12:50 PM36 °FBroken clouds.12 mph81%28.97 "HgN/A
12:20 PM36 °FPartly sunny.13 mph81%28.97 "HgN/A
Weather by CustomWeather, © 2014

See weather overviewHow to use our weather pages